When you browse on this site, cookies collect data to enhance your experience and personalize the content and advertising you see.
Visit our Privacy Policy to learn more. By continuing to use the site, you agree to this use of cookies and data.

Hourly Weather San Luis

Today, 15 July, Wednesday

Time Temperature Precipitation Wind Pressure Humidity
00:00 +7°C° 0 mm 3 mps 700 mmHg 58%
01:00 +7°C° 0 mm 3 mps 700 mmHg 59%
02:00 +6°C° 0 mm 2 mps 700 mmHg 60%
03:00 +6°C° 0 mm 2 mps 699 mmHg 62%
04:00 +6°C° 0 mm 2 mps 699 mmHg 65%
05:00 +5°C° 0 mm 2 mps 699 mmHg 67%
06:00 +5°C° 0 mm 2 mps 699 mmHg 67%
07:00 +5°C° 0 mm 2 mps 699 mmHg 66%
08:00 +5°C° 0 mm 2 mps 700 mmHg 66%
09:00 +8°C° 0 mm 2 mps 700 mmHg 58%
10:00 +11°C° 0 mm 3 mps 700 mmHg 49%
11:00 +13°C° 0 mm 4 mps 701 mmHg 41%
12:00 +14°C° 0 mm 4 mps 700 mmHg 40%
13:00 +15°C° 0 mm 4 mps 699 mmHg 38%
14:00 +17°C° 0 mm 4 mps 699 mmHg 37%
15:00 +15°C° 0 mm 4 mps 699 mmHg 39%
16:00 +16°C° 0 mm 3 mps 698 mmHg 41%
17:00 +14°C° 0 mm 3 mps 698 mmHg 43%
18:00 +12°C° 0 mm 3 mps 698 mmHg 49%
19:00 +12°C° 0 mm 2 mps 698 mmHg 56%
20:00 +9°C° 0 mm 2 mps 698 mmHg 62%
21:00 +8°C° 0 mm 2 mps 698 mmHg 64%
22:00 +8°C° 0 mm 2 mps 698 mmHg 65%
23:00 +8°C° 0 mm 3 mps 698 mmHg 67%

Tomorrow, 16 July, Thursday

Time Temperature Precipitation Wind Pressure Humidity
00:00 +8°C° 0 mm 3 mps 698 mmHg 67%
01:00 +7°C° 0 mm 4 mps 698 mmHg 67%
02:00 +7°C° 0 mm 4 mps 698 mmHg 66%
03:00 +6°C° 0 mm 4 mps 698 mmHg 67%
04:00 +7°C° 0 mm 3 mps 698 mmHg 67%
05:00 +5°C° 0 mm 3 mps 698 mmHg 67%
06:00 +5°C° 0 mm 3 mps 698 mmHg 64%
07:00 +7°C° 0 mm 3 mps 698 mmHg 61%
08:00 +7°C° 0 mm 3 mps 699 mmHg 58%
09:00 +10°C° 0 mm 3 mps 699 mmHg 51%
10:00 +12°C° 0 mm 3 mps 699 mmHg 44%
11:00 +15°C° 0 mm 4 mps 699 mmHg 37%
12:00 +17°C° 0 mm 3 mps 699 mmHg 35%
13:00 +18°C° 0 mm 3 mps 699 mmHg 33%
14:00 +19°C° 0 mm 3 mps 698 mmHg 31%
15:00 +18°C° 0 mm 2 mps 698 mmHg 33%
16:00 +17°C° 0 mm 2 mps 697 mmHg 36%
17:00 +16°C° 0 mm 1 mps 697 mmHg 39%
18:00 +14°C° 0 mm 2 mps 697 mmHg 44%
19:00 +12°C° 0 mm 2 mps 697 mmHg 48%
20:00 +10°C° 0 mm 2 mps 697 mmHg 53%
21:00 +9°C° 0 mm 2 mps 697 mmHg 55%
22:00 +8°C° 0 mm 2 mps 696 mmHg 57%
23:00 +8°C° 0 mm 2 mps 696 mmHg 59%

Day after tomorrow, 17 July, Friday

Time Temperature Precipitation Wind Pressure Humidity
00:00 +8°C° 0 mm 2 mps 696 mmHg 59%
01:00 +8°C° 0 mm 2 mps 696 mmHg 59%
02:00 +8°C° 0 mm 2 mps 696 mmHg 59%
03:00 +8°C° 0 mm 3 mps 695 mmHg 61%
04:00 +8°C° 0 mm 3 mps 695 mmHg 62%
05:00 +8°C° 0 mm 3 mps 694 mmHg 63%
06:00 +8°C° 0 mm 3 mps 694 mmHg 64%
07:00 +8°C° 0 mm 4 mps 694 mmHg 64%
08:00 +8°C° 0 mm 4 mps 694 mmHg 64%
09:00 +10°C° 0 mm 5 mps 694 mmHg 57%
10:00 +14°C° 0 mm 6 mps 694 mmHg 50%
11:00 +16°C° 0 mm 7 mps 694 mmHg 43%
12:00 +17°C° 0 mm 8 mps 693 mmHg 42%
13:00 +18°C° 0 mm 8 mps 692 mmHg 40%
14:00 +21°C° 0 mm 8 mps 692 mmHg 39%
15:00 +20°C° 0 mm 7 mps 691 mmHg 41%
16:00 +19°C° 0 mm 6 mps 691 mmHg 44%
17:00 +19°C° 0 mm 5 mps 690 mmHg 46%
18:00 +17°C° 0 mm 4 mps 690 mmHg 52%
19:00 +14°C° 0 mm 4 mps 690 mmHg 58%
20:00 +12°C° 0 mm 3 mps 690 mmHg 63%
21:00 +12°C° 0 mm 3 mps 690 mmHg 66%
22:00 +12°C° 0 mm 3 mps 691 mmHg 68%
23:00 +11°C° 0 mm 3 mps 691 mmHg 71%

18 July, Saturday

Time Temperature Precipitation Wind Pressure Humidity
00:00 +11°C° 0 mm 3 mps 691 mmHg 71%
01:00 +12°C° 0 mm 3 mps 691 mmHg 72%
02:00 +12°C° 0 mm 3 mps 690 mmHg 72%
03:00 +12°C° 0 mm 2 mps 690 mmHg 75%
04:00 +10°C° 0 mm 2 mps 690 mmHg 78%
05:00 +11°C° 0 mm 1 mps 690 mmHg 80%
06:00 +11°C° 0 mm 1 mps 691 mmHg 79%
07:00 +11°C° 0 mm 1 mps 691 mmHg 77%
08:00 +11°C° 0 mm 1 mps 692 mmHg 75%
09:00 +14°C° 0 mm 1 mps 693 mmHg 67%
10:00 +16°C° 0 mm 2 mps 693 mmHg 58%
11:00 +19°C° 0 mm 2 mps 694 mmHg 50%
12:00 +21°C° 0 mm 1 mps 694 mmHg 47%
13:00 +22°C° 0 mm 1 mps 693 mmHg 43%
14:00 +23°C° 0 mm 1 mps 693 mmHg 40%
15:00 +23°C° 0 mm 2 mps 693 mmHg 42%
16:00 +21°C° 0 mm 2 mps 692 mmHg 44%
17:00 +21°C° 0 mm 3 mps 692 mmHg 46%
18:00 +19°C° 0 mm 3 mps 692 mmHg 54%
19:00 +17°C° 0 mm 3 mps 692 mmHg 63%
20:00 +14°C° 0 mm 3 mps 693 mmHg 72%
21:00 +14°C° 0 mm 3 mps 693 mmHg 77%
22:00 +13°C° 0 mm 4 mps 693 mmHg 83%
23:00 +13°C° 0 mm 4 mps 693 mmHg 88%

19 July, Sunday

Time Temperature Precipitation Wind Pressure Humidity
00:00 +13°C° 0 mm 4 mps 693 mmHg 89%
01:00 +13°C° 0 mm 3 mps 693 mmHg 89%
02:00 +12°C° 0 mm 3 mps 693 mmHg 89%
03:00 +12°C° 0 mm 3 mps 693 mmHg 89%
04:00 +12°C° 0 mm 3 mps 693 mmHg 90%
05:00 +13°C° 0 mm 2 mps 692 mmHg 90%
06:00 +13°C° 0 mm 2 mps 693 mmHg 92%
07:00 +12°C° 0 mm 2 mps 693 mmHg 93%
08:00 +12°C° 0 mm 2 mps 693 mmHg 95%
09:00 +14°C° 0 mm 2 mps 693 mmHg 87%
10:00 +16°C° 0 mm 2 mps 694 mmHg 78%
11:00 +19°C° 0 mm 1 mps 694 mmHg 70%
12:00 +19°C° 0 mm 2 mps 694 mmHg 66%
13:00 +20°C° 0 mm 2 mps 694 mmHg 62%
14:00 +20°C° 0 mm 2 mps 693 mmHg 57%
15:00 +20°C° 0 mm 3 mps 693 mmHg 61%
16:00 +19°C° 0 mm 3 mps 693 mmHg 65%
17:00 +18°C° 0 mm 4 mps 693 mmHg 69%
18:00 +17°C° 0 mm 4 mps 693 mmHg 77%
19:00 +15°C° 0 mm 4 mps 693 mmHg 84%
20:00 +14°C° 0 mm 4 mps 693 mmHg 92%
21:00 +14°C° 0 mm 4 mps 694 mmHg 92%
22:00 +14°C° 0 mm 4 mps 694 mmHg 91%
23:00 +14°C° 0 mm 4 mps 694 mmHg 91%

20 July, Monday

Time Temperature Precipitation Wind Pressure Humidity
00:00 +13°C° 0 mm 3 mps 694 mmHg 92%
01:00 +13°C° 0 mm 3 mps 694 mmHg 92%
02:00 +13°C° 0 mm 3 mps 694 mmHg 93%
03:00 +13°C° 0 mm 3 mps 694 mmHg 93%
04:00 +13°C° 0 mm 3 mps 694 mmHg 93%
05:00 +13°C° 0 mm 3 mps 694 mmHg 93%
06:00 +13°C° 0 mm 3 mps 694 mmHg 94%
07:00 +13°C° 0 mm 3 mps 694 mmHg 94%
08:00 +13°C° 0 mm 4 mps 695 mmHg 94%
09:00 +14°C° 0.1 mm 4 mps 695 mmHg 89%
10:00 +15°C° 0.1 mm 4 mps 696 mmHg 85%
11:00 +15°C° 0.1 mm 5 mps 696 mmHg 80%
12:00 +16°C° 0 mm 5 mps 696 mmHg 79%
13:00 +16°C° 0 mm 5 mps 695 mmHg 78%
14:00 +16°C° 0 mm 5 mps 695 mmHg 77%
15:00 +15°C° 0 mm 5 mps 695 mmHg 79%
16:00 +15°C° 0 mm 5 mps 694 mmHg 81%
17:00 +14°C° 0 mm 5 mps 694 mmHg 83%
18:00 +14°C° 0 mm 5 mps 694 mmHg 86%
19:00 +13°C° 0 mm 5 mps 694 mmHg 88%
20:00 +12°C° 0 mm 5 mps 694 mmHg 91%
21:00 +12°C° 0 mm 4 mps 694 mmHg 92%
22:00 +12°C° 0 mm 4 mps 695 mmHg 92%
23:00 +12°C° 0 mm 3 mps 695 mmHg 92%
Show more